Flag for China Weather past 2 weeks in Chengdu, Sichuan, China

Now
68 °F

Fog.


Feels Like: 68 °F
Forecast: 63 / 69 °F
Wind: No wind

Location: Chengdu Airport

Current Time: Oct 26, 2014 at 11:49:25 AM

Latest Report: Oct 26, 2014 at 11:00 AM


Visibility: 1 mi

Pressure: 30.15 "Hg

Humidity: 78%

Dew point: 61 °F

Location of ChengduLocation

Historic Weather in Chengdu — Graph

°F

Chengdu temperature yesterday

Maximum temperature yesterday: 73 °F (at 12:00 PM)
Minimum temperature yesterday: 59 °F (at 4:00 AM)
Average temperature yesterday: 66 °F

Past Weeks' High & Low Weather Summary

 TemperatureHumidityPressure
High81 °F (Oct 21, 2:00 PM)94% (Oct 12, 5:00 AM)30.36 "Hg (Oct 12, 5:00 AM)
Low55 °F (Oct 13, 11:00 PM)32% (Oct 21, 3:00 PM)29.92 "Hg (Oct 18, 3:00 PM)
Average64 °F77%30.13 "Hg
* Reported Oct 11 10:00 AM — Oct 26 10:00 AM, Chengdu, Weather by CustomWeather, © 2014

Note: Actual official high and low records may vary slightly from our data, if they occured in-between our weather recording intervals... More about our weather records

Advertising

Chengdu weather history for previous 24 hours

 ConditionsComfort  
Time TempWeatherWind HumidityBarometerVisibility
10:00 AM
Oct 26
66 °FFog.1 mph83%30.15 "Hg1 mi
9:00 AM66 °FFog.1 mph83%30.15 "Hg1 mi
8:00 AM64 °FFog.1 mph88%30.12 "Hg1 mi
7:00 AM64 °FFog.1 mph88%30.09 "Hg1 mi
6:00 AM64 °FFog.1 mph88%30.07 "Hg1 mi
5:00 AM64 °FFog.No wind94%30.07 "Hg1 mi
4:00 AM64 °FFog.No wind94%30.04 "Hg1 mi
3:00 AM64 °FFog.No wind94%30.07 "Hg1 mi
2:00 AM64 °FFog.1 mph88%30.07 "Hg1 mi
1:00 AM64 °FFog.No wind88%30.07 "Hg1 mi
12:00 AM64 °FFog.No wind88%30.07 "Hg2 mi
11:00 PM
Oct 25
64 °FFog.No wind88%30.07 "Hg2 mi
10:00 PM64 °FFog.No wind83%30.07 "Hg2 mi
9:00 PM66 °FFog.No wind83%30.07 "Hg2 mi
8:00 PM68 °FFog.No wind73%30.04 "Hg3 mi
7:00 PM68 °FFog.No wind73%30.01 "Hg3 mi
6:00 PM70 °FHaze.No wind73%30.01 "Hg2 mi
5:00 PM72 °FOvercast.No wind61%29.98 "Hg3 mi
4:00 PM73 °FPartly sunny.1 mph57%29.98 "Hg3 mi
3:00 PM73 °FScattered clouds.1 mph61%29.98 "Hg3 mi
2:00 PM73 °FPartly sunny.1 mph57%30.01 "Hg2 mi
1:00 PM72 °FScattered clouds.3 mph65%30.04 "Hg2 mi
12:00 PM73 °FScattered clouds.3 mph57%30.07 "Hg1 mi
11:00 AM72 °FFog.1 mph69%30.09 "Hg1 mi
Weather by CustomWeather, © 2014

See weather overviewHow to use our weather pages